Change the Weather History Date:

Monday, March 10, 2014

  Actual Average Record
Temperature  
Mean Temperature 50 °F 38 °F  
Max Temperature 63 °F 48 °F 68 °F (2009)
Min Temperature 36 °F 29 °F 9 °F (1998)
Degree Days  
Heating Degree Days 15 27  
Month to date heating degree days 363 285  
Since 1 July heating degree days 5444 4787  
Cooling Degree Days 0 0  
Month to date cooling degree days 0 0  
Year to date cooling degree days 0 0  
Moisture  
Dew Point 38 °F    
Average Humidity 71    
Maximum Humidity 89    
Minimum Humidity 53    
Precipitation  
Precipitation 0.00 in 0.07 in 0.62 in (2009)
Month to date precipitation 0.06 0.64  
Year to date precipitation 2.81 4.71  
Sea Level Pressure  
Sea Level Pressure 29.81 in    
Wind  
Wind Speed 12 mph (SW)    
Max Wind Speed 21 mph    
Max Gust Speed 25 mph    
Visibility 8 miles    
Events      
T = Trace of Precipitation, MM = Missing Value Source: NWS Daily Summary

Daily Weather History Graph

Daily Weather History Graph

Search for Another Location

Airport or City:

Trip Planner

Search our weather history database for the weather conditions in past years. The results will help you decide how hot, cold, wet, or windy it might be!

Date:

Astronomy

Mar. 10, 2014 Rise Set
Actual Time 7:12 AM CDT 6:54 PM CDT
Civil Twilight 6:45 AM CDT 7:21 PM CDT
Nautical Twilight 6:14 AM CDT 7:53 PM CDT
Astronomical Twilight 5:42 AM CDT 8:24 PM CDT
Moon 1:38 PM CDT (3/10) 3:24 AM CDT (3/10)
Length of Visible Light 12h 36m
Length of Day
11h 42m
Waxing Gibbous, 70% of the Moon is Illuminated
Mar 10
Waxing Gibbous
Mar 16
Full
Mar 23
Last Quarter
Mar 30
New
Apr 7
First Quarter

Hourly Weather History & Observations

Time (CDT) Temp. Windchill Dew Point Humidity Pressure Visibility Wind Dir Wind Speed Gust Speed Precip Events Conditions
12:53 AM 37.0 °F 28.5 °F 32.0 °F 82% 29.94 in 6.0 mi SW 13.8 mph - N/A   Haze
1:53 AM 36.0 °F 27.5 °F 32.0 °F 86% 29.93 in 6.0 mi SSW 12.7 mph - N/A   Clear
2:53 AM 37.0 °F 28.9 °F 32.0 °F 82% 29.90 in 6.0 mi SSW 12.7 mph - N/A   Haze
3:53 AM 37.9 °F 29.6 °F 32.0 °F 79% 29.86 in 8.0 mi SSW 13.8 mph - N/A   Clear
4:53 AM 37.9 °F 29.6 °F 32.0 °F 79% 29.86 in 9.0 mi SW 13.8 mph - N/A   Clear
5:53 AM 37.0 °F 28.9 °F 32.0 °F 82% 29.86 in 8.0 mi SW 12.7 mph - N/A   Clear
6:53 AM 37.0 °F 28.9 °F 32.0 °F 82% 29.86 in 8.0 mi SW 12.7 mph - N/A   Clear
7:53 AM 37.9 °F 29.6 °F 33.1 °F 83% 29.85 in 6.0 mi SW 13.8 mph - N/A   Haze
8:53 AM 39.9 °F 31.8 °F 35.1 °F 83% 29.85 in 6.0 mi SW 15.0 mph - N/A   Haze
9:53 AM 44.1 °F 37.4 °F 37.9 °F 79% 29.85 in 6.0 mi SW 13.8 mph - N/A   Haze
10:53 AM 46.0 °F 38.5 °F 39.0 °F 76% 29.83 in 6.0 mi SW 19.6 mph - N/A   Haze
11:53 AM 52.0 °F - 41.0 °F 66% 29.82 in 7.0 mi SW 16.1 mph - N/A   Clear
12:53 PM 57.0 °F - 41.0 °F 55% 29.79 in 9.0 mi WSW 17.3 mph - N/A   Clear
1:53 PM 59.0 °F - 43.0 °F 55% 29.76 in 9.0 mi SW 18.4 mph - N/A   Clear
2:53 PM 61.0 °F - 44.1 °F 54% 29.74 in 10.0 mi SW 17.3 mph - N/A   Clear
3:53 PM 61.0 °F - 44.1 °F 54% 29.75 in 10.0 mi WSW 15.0 mph - N/A   Clear
4:53 PM 61.0 °F - 45.0 °F 56% 29.73 in 10.0 mi SW 13.8 mph - N/A   Clear
5:53 PM 55.0 °F - 45.0 °F 69% 29.73 in 10.0 mi SSW 9.2 mph - N/A   Mostly Cloudy
6:53 PM 51.1 °F - 44.1 °F 77% 29.74 in 8.0 mi West 3.5 mph - N/A   Mostly Cloudy
7:53 PM 46.9 °F - 42.1 °F 83% 29.75 in 9.0 mi SSW 3.5 mph - N/A   Clear
8:53 PM 45.0 °F 43.5 °F 41.0 °F 86% 29.75 in 8.0 mi SSW 3.5 mph - N/A   Clear
9:53 PM 46.9 °F - 41.0 °F 80% 29.74 in 8.0 mi SW 5.8 mph - N/A   Clear
10:53 PM 46.0 °F 43.9 °F 41.0 °F 83% 29.73 in 7.0 mi SW 4.6 mph - N/A   Clear
11:53 PM 44.1 °F 41.5 °F 39.9 °F 85% 29.71 in 7.0 mi SSW 4.6 mph - N/A   Clear